Location: Brad
(46.1333°N, 22.7833°E)
Time: 21:16:12
(UTC+00:00)

COSMOS 2428 - Pass Details

Date: 03 February 2023
Orbit: 843 x 858 km, 70.9° (Epoch: 23 March)

Event Time Altitude Azimuth Distance (km) Brightness Sun altitude
Rises 18:27:00 0° 203° (SSW) 3,390 6.0 -29.7°
Reaches altitude 10° 18:29:26 10° 204° (SSW) 2,458 5.3 -30.2°
Enters shadow 18:32:26 33° 203° (SSW) 1,379 3.8 -30.7°
